Location: L�gaud
(45.7115°N, 1.7775°E)
Time: 06:46:32
(UTC+00:00)

Cosmos 2366 rocket - Pass Details

Date: 03 March 2021
Orbit: 955 x 997 km, 82.9° (Epoch: 10 April)

Event Time Altitude Azimuth Distance (km) Brightness Sun altitude
Rises 20:05:16 0° 194° (SSW) 3,679 7.0 -25.4°
Reaches altitude 10° 20:07:47 10° 197° (SSW) 2,740 6.3 -25.8°
Maximum altitude 20:14:03 68° 280° (W) 1,066 4.3 -26.9°
Drops below altitude 10° 20:20:25 10° 4° (N) 2,775 6.5 -27.9°
Sets 20:22:59 0° 7° (N) 3,730 7.2 -28.3°
